Regional Weather Roundup
Issued by NWS Glasgow, MT

Home | Current Version | Previous Version | Text Only | Print | Product List | Glossary On
Versions: 1 2 3 4 5 6 7 8 9 10 11 12 13 14 15 16 17 18 19 20 21 22 23 24 25 26 27 28 29 30 31 32 33 34 35 36 37 38 39 40 41 42 43 44 45 46 47 48 49 50
000
ASUS45 KGGW 110815
RWRGGW
HOURLY REGIONAL WEATHER ROUNDUP FOR NORTHEAST MONTANA
NATIONAL WEATHER SERVICE GLASGOW MONTANA
100 AM MST MON DEC 11 2017

NOTE: "FAIR" INDICATES FEW OR NO CLOUDS BELOW 12,000 FEET WITH NO
SIGNIFICANT WEATHER AND/OR OBSTRUCTIONS TO VISISBILITY.

NORTHEAST MONTANA


CITY           SKY/WX    TMP DP  RH WIND       PRES   REMARKS
GLASGOW        CLOUDY    40  23  50 NW21      30.21R
PLENTYWOOD       N/A     39  30  70 NW35G49     N/A
WOLF POINT     CLEAR     42  26  53 NW29G37   30.16R
JORDAN           N/A     41  21  44 NW16      30.27S
WINNETT          N/A     42  15  33 W12         N/A
SIDNEY         CLOUDY    42  28  57 NW29G35   30.08R
GLENDIVE       CLOUDY    40  24  53 NW26G36   30.15R
MALTA            N/A     38  23  55 SW12        N/A
SCOBEY           N/A     39  24  55 NW33G46   30.08R

FORT PECK REPORTS


CITY           SKY/WX    TMP DP  RH WIND       PRES   REMARKS
FORT PECK        N/A     41  24  51 W29G40      N/A
THE PINES        N/A     42  21  43 W13G21      N/A

SOUTHEAST MONTANA


CITY           SKY/WX    TMP DP  RH WIND       PRES   REMARKS
BILLINGS       CLOUDY    44  13  28 W13       30.36R
MILES CITY     CLOUDY    44  21  40 NW16G29   30.24S
BAKER          CLOUDY    39  24  55 NW25G35   30.15R
LIVINGSTON     CLOUDY    44  12  27 SW25G36   30.42S

CENTRAL MONTANA


CITY           SKY/WX    TMP DP  RH WIND       PRES   REMARKS
HAVRE          CLOUDY    29  17  61 W7        30.39S
LEWISTOWN      CLOUDY    28  18  66 SW12      30.39S
GREAT FALLS    CLOUDY    33  12  41 NE5       30.43R
CUT BANK       PTCLDY    35  15  44 CALM      30.40R
HELENA         CLOUDY    17  14  88 CALM      30.51S
BUTTE          CLOUDY    10   4  76 CALM      30.53S
BOZEMAN        CLOUDY    14   7  73 S3        30.51F

WESTERN MONTANA


CITY           SKY/WX    TMP DP  RH WIND       PRES   REMARKS
MISSOULA       CLOUDY    17  16  95 CALM      30.63F FOG
KALISPELL      NOT AVBL

NORTH DAKOTA


CITY           SKY/WX    TMP DP  RH WIND       PRES   REMARKS
WILLISTON      CLOUDY    41  30  65 NW28G39   30.03R
DICKINSON      CLOUDY    39  27  62 NW33G43   29.99R
MINOT          CLOUDY    41  32  70 NW32G43   29.85R
BISMARCK       CLOUDY    45  32  60 NW25G41   29.90R

SOUTHERN SASKATCHEWAN


CITY           SKY/WX    TMP DP  RH WIND       PRES   REMARKS
REGINA         CLOUDY    34  32  93 NW25G32   30.07R
ESTEVAN        MOCLDY    36  32  87 NW26G37   29.95R
SWIFT CURRENT  CLOUDY    36  27  69 W16G23    30.23R




USA.gov is the U.S. government's official web portal to all federal, state and local government web resources and services.